Weather History for KP59 - February, 2012

Change the Weather History Date:

Thursday, February 16, 2012

  Actual Average Record
Temperature  
Mean Temperature 33 °F -  
Max Temperature 36 °F 25 °F 48 °F (2011)
Min Temperature 30 °F 13 °F -13 °F (2003)
Degree Days  
Heating Degree Days 32    
Moisture  
Dew Point 27 °F    
Average Humidity 79    
Maximum Humidity 92    
Minimum Humidity 66    
Precipitation  
Precipitation 0.03 in - - ()
Sea Level Pressure  
Sea Level Pressure 29.91 in    
Wind  
Wind Speed 9 mph (NW)    
Max Wind Speed 30 mph    
Max Gust Speed 36 mph    
Averages and records for this station are not official NWS values.
T = Trace of Precipitation, MM = Missing Value Source: NWS Daily Summary

Daily Weather History Graph

Daily Weather History Graph

Search for Another Location

Airport or City:

Trip Planner

Search our weather history database for the weather conditions in past years. The results will help you decide how hot, cold, wet, or windy it might be!

Date:

Astronomy

Feb. 16, 2012 Rise Set
Actual Time 7:56 AM EST 6:15 PM EST
Civil Twilight 7:24 AM EST 6:47 PM EST
Nautical Twilight 6:48 AM EST 7:23 PM EST
Astronomical Twilight 6:13 AM EST 7:59 PM EST
Moon 4:05 AM EST (2/16) 12:52 PM EST (2/16)
Length of Visible Light 11h 23m
Length of Day
10h 19m
Waning Crescent, 28% of the Moon is Illuminated
Feb 16
Waning Crescent
Feb 21
New
Feb 29
First Quarter
Mar 8
Full
Mar 14
Last Quarter

Hourly Weather History & Observations

Time (EST) Temp. Windchill Dew Point Humidity Pressure Visibility Wind Dir Wind Speed Gust Speed Precip Events Conditions
12:51 AM 30.9 °F 25.2 °F 28.0 °F 89% 29.98 in - SW 5.8 mph - N/A   Unknown
1:51 AM 32.0 °F 25.6 °F 30.0 °F 92% 29.96 in - WSW 6.9 mph - N/A   Unknown
2:51 AM 32.0 °F 26.4 °F 30.0 °F 92% 29.96 in - SW 5.8 mph - N/A   Unknown
3:51 AM 32.0 °F 25.6 °F 30.0 °F 92% 29.93 in - SW 6.9 mph - 0.01 in   Unknown
4:51 AM 33.1 °F - 30.9 °F 92% 29.93 in - Calm Calm - N/A   Unknown
5:51 AM 32.0 °F 27.5 °F 30.0 °F 92% 29.92 in - Variable 4.6 mph - N/A   Unknown
6:51 AM 32.0 °F - 30.0 °F 92% 29.91 in - Calm Calm - N/A   Unknown
7:51 AM 33.1 °F 30.0 °F 30.0 °F 89% 29.91 in - WSW 3.5 mph - N/A   Unknown
8:51 AM 34.0 °F 31.0 °F 30.0 °F 85% 29.90 in - Variable 3.5 mph - N/A   Unknown
9:51 AM 35.1 °F 31.0 °F 30.0 °F 82% 29.90 in - Variable 4.6 mph - N/A   Unknown
10:51 AM 36.0 °F 31.1 °F 28.9 °F 76% 29.89 in - WNW 5.8 mph - N/A   Unknown
11:51 AM 34.0 °F 29.8 °F 30.0 °F 85% 29.89 in - Variable 4.6 mph - N/A   Unknown
12:51 PM 34.0 °F 25.0 °F 28.9 °F 82% 29.88 in - NNW 12.7 mph 19.6 mph 0.01 in   Unknown
1:51 PM 34.0 °F 26.0 °F 28.0 °F 79% 29.87 in - NNW 10.4 mph - N/A   Unknown
2:51 PM 35.1 °F 25.9 °F 25.0 °F 67% 29.86 in - NW 13.8 mph 23.0 mph 0.01 in   Unknown
3:51 PM 34.0 °F 25.5 °F 27.0 °F 75% 29.87 in - NNW 11.5 mph 25.3 mph N/A   Unknown
4:51 PM 34.0 °F 26.6 °F 27.0 °F 75% 29.87 in - NW 9.2 mph - N/A   Unknown
5:51 PM 34.0 °F 26.0 °F 25.0 °F 70% 29.88 in - NNW 10.4 mph 25.3 mph N/A   Unknown
6:51 PM 34.0 °F 22.7 °F 24.1 °F 67% 29.90 in - NNW 19.6 mph 27.6 mph N/A   Unknown
7:51 PM 33.1 °F 20.9 °F 23.0 °F 66% 29.91 in - North 21.9 mph 29.9 mph N/A   Unknown
8:51 PM 32.0 °F 17.6 °F 21.9 °F 66% 29.91 in - North 29.9 mph 35.7 mph N/A   Unknown
9:51 PM 32.0 °F 18.9 °F 21.9 °F 66% 29.92 in - North 24.2 mph 32.2 mph N/A   Unknown
10:51 PM 30.9 °F 16.7 °F 21.9 °F 69% 29.92 in - North 27.6 mph 33.4 mph N/A   Unknown
11:51 PM 30.9 °F 16.9 °F 21.0 °F 67% 29.94 in - North 26.5 mph 31.1 mph N/A   Unknown